Location: �terpigny
(49.8910°N, 2.9249°E)
Time: 04:37:09
(UTC+00:00)

Cosmos 332 Rocket - Pass Details

Date: 05 June 2022
Orbit: 681 x 703 km, 74.0° (Epoch: 06 July)

Event Time Altitude Azimuth Distance (km) Brightness Sun altitude
Exits shadow 23:32:42 23° 220° (SW) 1,441 5.0 -17.4°
Maximum altitude 23:35:38 65° 297° (WNW) 755 4.0 -17.4°
Drops below altitude 10° 23:40:25 10° 19° (NNE) 2,138 7.4 -17.5°
Sets 23:42:46 0° 22° (NNE) 3,060 8.4 -17.5°
